User: anonymous   Login
Location: Unspecified
(0.0000°N, 0.0000°E)
Time: 00:49:50
(UTC+00:00)
Language:

Kiku 2 - Orbit

View from above orbital plane
View from above orbital plane
View from above satellite
View from above satellite

Ground track
Ground track

The orbit data is extracted from the following two-line orbital elements,

1  9852U 77014A   18265.44819463 +.00000011 +00000-0 +00000-0 0  9996
2  9852 011.7755 316.1906 0003370 304.2743 144.2908 00.99997984098979
Epoch (UTC): 22 September 2018 10:45:24
Eccentricity: 0.0003370
inclination: 11.7755°
perigee height: 35849 km
apogee height: 35877 km
right ascension of ascending node: 316.1906°
argument of perigee: 304.2743°
revolutions per day: 0.99997984
mean anomaly at epoch: 144.2908°
orbit number at epoch: 9897

The dashed part of the orbit path shows where the satellite is in the earth's shadow,  

DLR